Total_Precipitation_Accumulation
3.48 3.50 3.50 3.42 3.17 3.45 3.85 4.13 3.73 4.04 4.07 3.65 3.30 3.11 3.13 3.10 3.31 3.61 3.64 3.82 3.72 3.68 4.10 4.41 4.22 3.94 3.73 3.35 2.84 2.53 2.41 2.15 1.89 1.58 1.38 1.39 1.40 1.32 1.27 1.28 1.25 1.13 1.01
4.06 4.00 3.81 3.70 3.31 3.25 3.56 3.79 3.79 4.26 4.10 3.84 3.21 3.03 2.99 3.14 3.36 3.46 3.57 4.10 4.04 3.75 3.85 4.36 4.76 4.76 4.45 4.13 3.62 3.20 2.89 2.64 2.43 2.02 1.66 1.55 1.49 1.39 1.33 1.38 1.50 1.38 1.13
4.55 4.33 4.06 3.65 3.38 3.38 3.63 3.62 3.65 3.81 3.61 3.49 3.23 3.26 3.20 3.22 3.26 3.39 3.57 3.88 3.75 3.47 3.53 3.85 4.50 5.01 5.25 5.17 4.80 4.42 3.78 3.19 2.86 2.41 1.95 1.68 1.52 1.44 1.38 1.42 1.51 1.48 1.33
4.24 4.29 3.91 3.44 3.42 3.40 3.51 3.70 3.56 3.66 3.60 3.57 3.50 3.24 3.25 3.26 2.97 3.01 3.16 3.29 3.53 3.17 3.29 3.50 3.79 4.29 5.15 5.91 6.25 6.11 5.30 4.22 3.38 2.91 2.53 2.12 1.80 1.59 1.42 1.46 1.60 1.55 1.34
3.94 4.18 3.86 3.62 3.50 3.46 3.36 3.13 3.61 3.77 3.75 3.70 3.32 3.19 2.90 2.69 2.52 2.36 2.46 2.46 2.76 2.96 3.18 3.16 3.39 3.71 4.58 5.82 6.93 7.29 6.81 5.54 4.49 3.82 3.37 2.88 2.47 2.10 1.74 1.59 1.53 1.46 1.33
3.58 3.83 3.53 3.43 3.54 3.69 3.53 3.56 3.91 3.92 3.57 3.61 3.15 3.04 2.88 2.48 2.36 2.25 2.14 2.21 2.25 2.28 2.71 3.18 3.68 3.38 3.73 4.70 5.86 6.78 7.34 6.87 5.73 4.81 4.08 3.55 3.13 2.71 2.19 1.91 1.77 1.68 1.61
3.20 3.58 3.30 3.67 3.51 3.47 3.30 3.26 3.44 3.47 3.13 3.30 3.64 3.21 2.66 2.34 2.23 2.04 2.04 2.16 2.07 2.20 2.59 3.11 3.52 3.64 3.38 3.33 3.90 4.72 5.99 6.68 6.22 5.32 4.57 4.02 3.60 3.22 2.65 2.32 2.13 1.94 1.83
3.25 3.05 3.29 3.14 3.12 3.26 3.03 2.96 3.17 3.17 2.85 3.14 3.42 3.51 2.96 2.69 2.26 1.70 1.89 2.06 2.15 2.40 2.40 2.52 3.03 3.49 3.40 3.67 3.08 3.02 4.10 5.27 6.02 5.82 5.06 4.38 3.86 3.39 2.95 2.67 2.34 1.98 1.79
3.43 3.26 3.16 2.99 2.94 2.76 2.92 2.95 2.98 3.09 3.09 2.98 3.02 3.35 3.07 2.74 2.31 1.83 1.77 2.01 2.35 2.63 2.55 2.57 2.56 2.90 3.08 3.47 3.36 3.00 2.91 3.45 4.60 5.68 5.66 4.89 4.00 3.30 2.89 2.84 2.73 2.37 2.07
3.62 3.32 3.11 2.88 2.72 2.56 2.86 2.55 2.67 2.98 3.20 2.89 2.80 2.75 2.72 2.84 2.73 2.35 1.91 1.77 2.04 2.26 2.29 2.19 2.28 2.53 2.77 3.10 3.22 3.16 2.83 2.74 3.35 4.47 5.11 5.01 4.40 3.68 3.20 3.19 3.47 3.42 2.93
3.37 3.03 2.91 2.83 2.65 2.48 2.53 2.53 2.84 2.86 2.83 2.76 2.82 2.76 2.85 3.02 2.81 2.67 2.35 2.21 2.27 2.13 2.01 1.96 2.03 2.23 2.55 2.90 3.20 3.11 3.32 3.02 2.84 3.11 3.66 4.05 4.21 3.98 3.65 3.78 4.38 4.72 4.39
3.03 2.78 2.62 2.71 2.58 2.50 2.55 2.56 2.66 2.73 2.86 2.91 2.90 2.86 2.92 2.92 2.95 3.12 2.77 2.52 2.46 2.13 2.00 1.99 2.10 2.26 2.46 2.67 2.62 2.82 3.02 3.13 2.95 2.84 2.95 3.17 3.45 3.72 3.87 4.12 4.62 5.13 5.39
2.49 2.48 2.52 2.62 2.48 2.52 2.60 2.72 2.75 2.73 2.84 2.88 2.81 2.89 2.97 2.91 3.01 3.15 3.07 2.70 2.43 2.14 2.19 2.16 2.13 2.36 2.41 2.70 2.92 2.83 2.56 2.66 2.60 2.55 2.54 2.58 2.71 3.01 3.32 3.61 4.16 4.73 5.20
2.12 2.19 2.40 2.45 2.40 2.36 2.39 2.82 2.80 2.80 2.90 2.84 2.68 3.02 3.06 2.85 3.03 3.17 3.29 3.33 2.95 2.70 2.74 2.67 2.37 2.35 2.53 2.66 2.90 2.74 2.49 2.49 2.19 2.10 2.06 2.07 2.15 2.31 2.52 2.76 3.08 3.44 3.76
2.14 2.18 2.25 2.46 2.57 2.66 2.71 2.89 2.81 2.82 3.02 2.97 2.91 3.11 3.07 2.89 2.92 3.02 3.24 3.52 3.60 3.35 3.19 2.99 2.62 2.49 2.54 2.54 2.65 2.53 2.60 2.48 2.03 1.78 1.72 1.71 1.68 1.71 1.81 1.95 2.18 2.47 2.66
2.24 2.30 2.31 2.39 2.55 2.65 2.70 2.86 2.86 2.91 3.08 3.09 3.16 3.23 3.09 2.84 3.00 3.01 3.12 3.45 3.76 3.84 3.50 2.98 2.71 2.59 2.66 2.46 2.49 2.25 2.29 2.17 1.84 1.67 1.57 1.54 1.47 1.43 1.44 1.51 1.63 1.89 2.08
2.26 2.34 2.36 2.35 2.32 2.43 2.63 2.87 2.81 2.96 3.07 3.10 3.07 2.99 2.91 2.96 3.15 3.06 3.17 3.32 3.59 3.85 3.54 3.10 2.92 2.87 2.93 2.82 2.65 2.29 2.01 1.89 1.74 1.80 1.64 1.49 1.40 1.36 1.40 1.48 1.54 1.64 1.81
2.30 2.33 2.34 2.33 2.24 2.34 2.61 2.76 2.85 3.09 3.22 3.09 3.01 2.99 2.85 2.98 3.08 3.06 3.12 3.10 3.21 3.56 3.45 3.17 3.08 3.12 3.03 2.87 2.78 2.59 2.19 1.97 1.98 2.04 1.80 1.63 1.51 1.45 1.40 1.40 1.49 1.57 1.68
2.31 2.30 2.33 2.36 2.43 2.59 2.77 2.88 2.96 3.11 3.07 2.94 2.98 2.89 2.75 2.85 2.76 2.83 2.87 2.89 2.89 3.03 3.24 3.12 2.98 3.07 2.99 2.86 2.82 2.68 2.57 2.64 2.38 2.16 1.96 1.77 1.63 1.54 1.50 1.42 1.45 1.53 1.64
2.11 2.16 2.33 2.50 2.61 2.77 2.89 2.92 2.96 2.92 2.88 2.73 2.62 2.55 2.57 2.70 2.79 2.78 2.67 2.66 2.75 2.91 3.02 3.05 3.00 3.08 3.10 3.13 3.06 2.91 2.90 2.84 2.64 2.14 2.02 1.78 1.64 1.51 1.43 1.36 1.38 1.54 1.67
2.01 2.26 2.41 2.49 2.53 2.55 2.61 2.81 2.78 2.67 2.64 2.48 2.35 2.18 2.20 2.55 2.70 2.68 2.46 2.58 2.67 2.74 2.83 2.96 2.99 3.07 3.16 3.40 3.23 2.97 2.85 2.92 2.75 2.47 2.26 1.97 1.80 1.67 1.59 1.52 1.46 1.46 1.50
2.19 2.38 2.38 2.38 2.33 1.96 2.07 2.25 2.26 2.25 2.29 2.25 2.12 2.05 2.04 2.11 2.14 2.19 2.21 2.25 2.33 2.40 2.61 2.93 3.00 2.98 2.94 3.05 3.20 3.16 3.08 2.98 2.86 2.72 2.74 2.59 2.22 2.13 2.00 1.81 1.69 1.44 1.28
2.43 2.52 2.46 2.40 2.23 2.10 1.99 1.89 1.87 1.92 2.06 2.08 2.10 2.17 1.85 1.65 1.81 1.83 1.99 1.99 1.93 2.05 2.21 2.48 2.67 2.69 2.80 2.82 3.12 3.16 3.23 3.24 3.15 3.07 3.06 3.05 2.69 2.36 2.07 1.95 1.86 1.50 1.33
2.68 2.69 2.65 2.53 2.39 2.25 2.16 1.97 1.96 1.88 1.95 1.97 1.99 2.03 1.97 1.84 1.81 1.92 2.02 1.96 1.80 1.75 1.76 1.73 1.94 2.25 2.54 2.83 2.92 2.99 3.13 3.20 3.19 3.01 2.92 2.95 2.74 2.58 2.22 1.92 1.79 1.58 1.40
2.82 2.77 2.85 2.76 2.61 2.55 2.37 2.02 1.86 1.76 1.90 1.93 1.93 1.88 1.83 1.75 1.85 1.75 1.70 1.70 1.71 1.68 1.54 1.53 1.60 1.82 2.06 2.17 2.40 2.66 2.88 2.89 2.82 2.62 2.45 2.53 2.53 2.53 2.49 2.24 1.84 1.72 1.49
2.94 2.95 2.87 2.82 2.70 2.64 2.56 2.04 1.78 1.67 1.84 1.87 1.92 1.87 1.75 1.59 1.61 1.52 1.45 1.58 1.58 1.58 1.65 1.59 1.47 1.48 1.55 1.73 1.85 1.94 2.26 2.50 2.40 2.33 2.10 2.03 2.00 2.14 2.31 2.08 1.81 1.73 1.68